• In Hungary
  • List of Countries
  • For 7 days
  • Water Temperature
  • Satellite Maps
  • Weather Map
  • News
  • Weather Widgets
  • user-avatar
    Login

    Hourly Weather Niefang

    Today, 15 December, Friday

    Time Temperature Precipitation Wind Pressure Humidity
    00:00 +22°C° 0.4 mm 0 mps 704 mmHg 94%
    01:00 +22°C° 0 mm 0 mps 703 mmHg 95%
    02:00 +21°C° 0 mm 0 mps 703 mmHg 95%
    03:00 +21°C° 0 mm 0 mps 703 mmHg 95%
    04:00 +21°C° 0 mm 0 mps 703 mmHg 95%
    05:00 +21°C° 0 mm 0 mps 703 mmHg 95%
    06:00 +21°C° 0 mm 0 mps 703 mmHg 95%
    07:00 +21°C° 0 mm 0 mps 704 mmHg 95%
    08:00 +23°C° 0 mm 0 mps 704 mmHg 87%
    09:00 +27°C° 0 mm 1 mps 704 mmHg 78%
    10:00 +29°C° 0 mm 1 mps 705 mmHg 70%
    11:00 +29°C° 0.1 mm 1 mps 704 mmHg 67%
    12:00 +30°C° 0.1 mm 1 mps 704 mmHg 63%
    13:00 +31°C° 0.1 mm 1 mps 704 mmHg 59%
    14:00 +30°C° 0.5 mm 1 mps 703 mmHg 63%
    15:00 +29°C° 0.5 mm 1 mps 703 mmHg 67%
    16:00 +29°C° 0.5 mm 1 mps 702 mmHg 70%
    17:00 +27°C° 0.9 mm 1 mps 702 mmHg 78%
    18:00 +25°C° 0.9 mm 1 mps 702 mmHg 85%
    19:00 +24°C° 0.9 mm 1 mps 702 mmHg 93%
    20:00 +24°C° 0.1 mm 1 mps 703 mmHg 94%
    21:00 +23°C° 0.1 mm 1 mps 703 mmHg 95%
    22:00 +23°C° 0.1 mm 1 mps 704 mmHg 96%
    23:00 +23°C° 0 mm 1 mps 703 mmHg 97%

    Tomorrow, 16 December, Saturday

    Time Temperature Precipitation Wind Pressure Humidity
    00:00 +23°C° 0 mm 1 mps 703 mmHg 97%
    01:00 +23°C° 0 mm 1 mps 703 mmHg 97%
    02:00 +22°C° 0.1 mm 1 mps 703 mmHg 98%
    03:00 +22°C° 0.1 mm 1 mps 702 mmHg 98%
    04:00 +22°C° 0.1 mm 1 mps 702 mmHg 98%
    05:00 +22°C° 0 mm 1 mps 702 mmHg 97%
    06:00 +22°C° 0 mm 1 mps 703 mmHg 97%
    07:00 +23°C° 0 mm 1 mps 703 mmHg 96%
    08:00 +24°C° 0 mm 1 mps 704 mmHg 91%
    09:00 +25°C° 0 mm 1 mps 704 mmHg 86%
    10:00 +26°C° 0 mm 1 mps 705 mmHg 81%
    11:00 +27°C° 0.2 mm 1 mps 704 mmHg 75%
    12:00 +29°C° 0.2 mm 1 mps 704 mmHg 69%
    13:00 +30°C° 0.2 mm 1 mps 704 mmHg 63%
    14:00 +30°C° 0.3 mm 1 mps 703 mmHg 65%
    15:00 +29°C° 0.3 mm 1 mps 703 mmHg 66%
    16:00 +29°C° 0.3 mm 2 mps 702 mmHg 67%
    17:00 +27°C° 0.3 mm 2 mps 702 mmHg 75%
    18:00 +26°C° 0.3 mm 1 mps 702 mmHg 83%
    19:00 +24°C° 0.3 mm 1 mps 703 mmHg 91%
    20:00 +24°C° 0 mm 1 mps 703 mmHg 93%
    21:00 +23°C° 0 mm 1 mps 704 mmHg 94%
    22:00 +23°C° 0 mm 1 mps 704 mmHg 96%
    23:00 +23°C° 0 mm 1 mps 704 mmHg 96%

    Day after tomorrow, 17 December, Sunday

    Time Temperature Precipitation Wind Pressure Humidity
    00:00 +23°C° 0 mm 1 mps 704 mmHg 97%
    01:00 +22°C° 0 mm 1 mps 703 mmHg 97%
    02:00 +22°C° 0 mm 1 mps 703 mmHg 97%
    03:00 +22°C° 0 mm 1 mps 703 mmHg 97%
    04:00 +22°C° 0 mm 1 mps 702 mmHg 97%
    05:00 +22°C° 0 mm 1 mps 703 mmHg 96%
    06:00 +22°C° 0 mm 1 mps 703 mmHg 95%
    07:00 +23°C° 0 mm 1 mps 704 mmHg 94%
    08:00 +24°C° 0.1 mm 1 mps 704 mmHg 87%
    09:00 +26°C° 0.1 mm 1 mps 705 mmHg 79%
    10:00 +28°C° 0.1 mm 1 mps 706 mmHg 72%
    11:00 +29°C° 0.3 mm 1 mps 705 mmHg 67%
    12:00 +30°C° 0.3 mm 1 mps 705 mmHg 63%
    13:00 +31°C° 0.3 mm 1 mps 704 mmHg 59%
    14:00 +30°C° 0.5 mm 1 mps 703 mmHg 61%
    15:00 +30°C° 0.5 mm 1 mps 702 mmHg 63%
    16:00 +29°C° 0.5 mm 1 mps 702 mmHg 65%
    17:00 +27°C° 0.1 mm 1 mps 702 mmHg 72%
    18:00 +26°C° 0.1 mm 1 mps 702 mmHg 79%
    19:00 +24°C° 0.1 mm 1 mps 703 mmHg 87%
    20:00 +24°C° 0 mm 1 mps 703 mmHg 89%
    21:00 +23°C° 0 mm 1 mps 704 mmHg 91%
    22:00 +23°C° 0 mm 1 mps 705 mmHg 93%
    23:00 +23°C° 0 mm 1 mps 704 mmHg 94%

    18 December, Monday

    Time Temperature Precipitation Wind Pressure Humidity
    00:00 +22°C° 0 mm 1 mps 704 mmHg 95%
    01:00 +22°C° 0 mm 1 mps 704 mmHg 95%
    02:00 +22°C° 0 mm 1 mps 703 mmHg 96%
    03:00 +22°C° 0 mm 1 mps 703 mmHg 96%
    04:00 +22°C° 0 mm 1 mps 703 mmHg 96%
    05:00 +22°C° 0 mm 1 mps 703 mmHg 96%
    06:00 +22°C° 0 mm 1 mps 703 mmHg 95%
    07:00 +22°C° 0 mm 1 mps 704 mmHg 94%
    08:00 +24°C° 0 mm 1 mps 704 mmHg 85%
    09:00 +26°C° 0 mm 1 mps 705 mmHg 76%
    10:00 +28°C° 0 mm 1 mps 705 mmHg 67%
    11:00 +29°C° 0 mm 1 mps 705 mmHg 61%
    12:00 +30°C° 0 mm 1 mps 704 mmHg 56%
    13:00 +31°C° 0 mm 1 mps 704 mmHg 51%
    14:00 +31°C° 0.3 mm 1 mps 703 mmHg 55%
    15:00 +30°C° 0.3 mm 1 mps 702 mmHg 59%
    16:00 +29°C° 0.3 mm 1 mps 702 mmHg 63%
    17:00 +28°C° 0.2 mm 1 mps 702 mmHg 71%
    18:00 +26°C° 0.2 mm 1 mps 702 mmHg 79%
    19:00 +24°C° 0.2 mm 1 mps 702 mmHg 87%
    20:00 +24°C° 0.1 mm 1 mps 703 mmHg 89%
    21:00 +23°C° 0.1 mm 1 mps 703 mmHg 91%
    22:00 +23°C° 0.1 mm 1 mps 704 mmHg 94%
    23:00 +23°C° 0.1 mm 1 mps 703 mmHg 94%

    19 December, Tuesday

    Time Temperature Precipitation Wind Pressure Humidity
    00:00 +23°C° 0.1 mm 1 mps 703 mmHg 95%
    01:00 +22°C° 0.1 mm 1 mps 703 mmHg 95%
    02:00 +22°C° 0.1 mm 1 mps 703 mmHg 95%
    03:00 +22°C° 0.1 mm 1 mps 703 mmHg 95%
    04:00 +22°C° 0.1 mm 1 mps 702 mmHg 95%
    05:00 +22°C° 0 mm 1 mps 703 mmHg 95%
    06:00 +22°C° 0 mm 1 mps 703 mmHg 95%
    07:00 +20°C° 0 mm 0 mps 704 mmHg 95%
    08:00 +24°C° 0 mm 1 mps 704 mmHg 87%
    09:00 +25°C° 0 mm 1 mps 705 mmHg 80%
    10:00 +27°C° 0 mm 1 mps 705 mmHg 73%
    11:00 +28°C° 0.2 mm 1 mps 705 mmHg 68%
    12:00 +29°C° 0.2 mm 1 mps 704 mmHg 63%
    13:00 +30°C° 0.2 mm 1 mps 704 mmHg 58%
    14:00 +29°C° 0.4 mm 1 mps 703 mmHg 61%
    15:00 +29°C° 0.4 mm 2 mps 702 mmHg 63%
    16:00 +29°C° 0.4 mm 2 mps 702 mmHg 65%
    17:00 +27°C° 0.1 mm 1 mps 702 mmHg 72%
    18:00 +26°C° 0.1 mm 1 mps 702 mmHg 79%
    19:00 +24°C° 0.1 mm 1 mps 702 mmHg 86%
    20:00 +24°C° 0 mm 1 mps 703 mmHg 89%
    21:00 +23°C° 0 mm 1 mps 703 mmHg 91%
    22:00 +23°C° 0 mm 1 mps 704 mmHg 94%
    23:00 +22°C° 0 mm 1 mps 703 mmHg 95%

    20 December, Wednesday

    Time Temperature Precipitation Wind Pressure Humidity
    00:00 +22°C° 0 mm 1 mps 703 mmHg 96%
    01:00 +22°C° 0 mm 1 mps 703 mmHg 96%
    02:00 +22°C° 0 mm 1 mps 702 mmHg 97%
    03:00 +21°C° 0 mm 1 mps 702 mmHg 97%
    04:00 +21°C° 0 mm 1 mps 702 mmHg 97%
    05:00 +22°C° 0 mm 1 mps 703 mmHg 96%
    06:00 +22°C° 0 mm 1 mps 703 mmHg 95%
    07:00 +20°C° 0 mm 0 mps 704 mmHg 94%
    08:00 +24°C° 0 mm 1 mps 704 mmHg 85%
    09:00 +26°C° 0 mm 1 mps 705 mmHg 76%
    10:00 +28°C° 0 mm 1 mps 705 mmHg 67%
    11:00 +29°C° 0 mm 1 mps 705 mmHg 61%
    12:00 +31°C° 0 mm 1 mps 704 mmHg 55%
    13:00 +32°C° 0 mm 1 mps 703 mmHg 48%
    14:00 +31°C° 0.1 mm 1 mps 703 mmHg 52%
    15:00 +31°C° 0.1 mm 1 mps 702 mmHg 55%
    16:00 +30°C° 0.1 mm 1 mps 702 mmHg 58%
    17:00 +28°C° 0.2 mm 1 mps 702 mmHg 66%
    18:00 +26°C° 0.2 mm 1 mps 702 mmHg 75%
    19:00 +25°C° 0.2 mm 1 mps 702 mmHg 83%
    20:00 +24°C° 0.1 mm 1 mps 703 mmHg 87%
    21:00 +24°C° 0.1 mm 1 mps 703 mmHg 90%
    22:00 +23°C° 0.1 mm 1 mps 703 mmHg 93%
    23:00 +23°C° 0 mm 1 mps 703 mmHg 94%
    Show more